Wind_Speed
46 47 47 47 47 46 46 46 46 45 44 44 43 42 41 40 39 38 37 36 36 35 34 34 33 32 32 31 30 30 29 29 28 28 27 26 26 25 25 24 24 23 23 23 22 22 23 23 22 22 22 22 22 22 22 22 22 22 22 22 22 21 21 20 19 18 16 16 15 15 14 14 14 15 16 17 18 19 17 16 17 16 15 15 15 14 13 12
47 47 48 48 48 47 47 47 47 46 46 46 45 44 43 42 41 40 39 39 38 38 37 36 35 34 33 32 31 31 30 30 30 29 28 27 27 27 26 26 25 25 24 24 24 23 23 23 23 23 23 22 22 22 22 23 23 23 23 23 23 22 22 21 20 19 18 17 16 16 16 16 17 17 18 17 19 21 20 18 19 18 15 15 15 15 14 14
48 48 48 49 49 49 49 48 48 48 48 48 47 46 46 45 44 42 42 41 40 40 39 38 37 36 35 34 33 32 32 31 31 31 30 29 29 29 28 27 27 26 26 25 25 24 24 24 23 23 23 23 23 23 23 23 23 24 24 24 24 23 23 22 21 21 20 19 18 17 17 17 18 19 19 19 20 22 22 20 20 19 17 16 15 15 15 15
48 48 49 49 49 50 50 50 50 49 49 49 49 48 48 47 46 45 44 43 42 42 41 40 39 38 37 36 34 34 33 33 33 33 32 31 31 30 30 29 28 27 27 26 26 26 25 25 24 24 24 24 24 24 24 24 24 24 24 25 24 24 24 23 22 21 21 20 20 19 18 19 20 21 21 20 22 24 23 22 22 21 20 18 17 16 15 15
50 50 49 50 50 50 50 51 51 51 50 51 50 50 49 49 48 47 46 45 45 44 43 42 41 39 38 37 36 35 35 35 35 34 34 33 32 32 31 30 29 29 28 28 27 27 26 26 25 25 25 25 25 25 25 25 25 25 25 25 25 25 25 24 23 22 22 21 21 21 20 20 21 22 21 22 23 25 25 23 23 23 22 21 19 17 16 16
50 50 50 50 50 50 51 51 51 51 51 52 52 52 51 51 50 49 48 48 47 46 45 44 43 41 40 39 38 37 36 36 37 36 35 35 34 33 32 31 30 30 30 29 29 28 28 27 27 26 26 26 26 26 25 25 25 25 25 25 25 25 25 25 24 23 23 22 23 23 22 21 23 23 22 23 24 25 25 24 23 23 24 23 21 19 18 18
50 50 51 51 51 51 51 51 52 52 52 53 53 53 53 52 52 51 50 50 49 47 47 46 44 44 42 41 40 39 38 38 39 38 37 36 36 35 34 33 32 32 31 31 30 30 29 29 28 27 27 27 27 27 27 26 26 26 26 25 25 25 25 25 24 24 24 24 24 24 23 23 24 24 24 24 25 26 26 25 24 24 24 24 23 21 20 20
50 50 50 50 50 50 51 51 52 52 53 53 53 53 53 53 53 53 52 51 51 50 48 47 46 45 44 43 42 41 40 40 40 39 38 38 37 36 35 34 34 33 33 32 32 31 31 30 29 29 28 28 28 28 28 27 27 27 26 26 25 25 25 25 25 25 25 26 26 26 24 24 24 24 25 26 27 28 28 27 25 24 24 25 24 23 22 22
49 49 49 49 50 50 50 51 51 52 52 53 53 54 54 54 54 54 54 53 52 51 50 49 48 47 46 45 44 43 42 41 42 40 40 39 38 37 36 36 35 35 34 34 33 33 32 31 31 30 30 30 29 29 29 29 29 28 27 27 26 26 26 25 25 26 27 27 28 27 25 25 24 25 27 27 28 29 30 29 27 25 25 25 25 24 23 24
49 49 49 49 49 49 49 50 50 51 51 52 52 53 54 54 55 55 54 54 54 53 52 51 50 49 48 47 46 45 44 42 43 43 41 40 39 38 38 37 37 36 36 35 35 34 34 33 33 32 31 31 31 30 30 30 31 30 29 29 28 27 27 27 27 27 28 29 29 28 26 26 26 26 28 28 29 30 30 30 29 27 27 27 26 25 25 26
51 51 50 50 49 49 49 49 49 50 50 51 51 52 53 54 54 54 54 54 55 54 53 52 52 51 50 49 48 47 45 44 45 45 43 42 40 40 39 39 38 38 37 37 36 36 35 35 34 33 33 33 32 32 32 32 32 32 31 31 30 29 28 29 29 29 30 30 29 28 27 27 28 28 29 29 30 31 31 30 30 29 29 29 28 27 27 29
54 54 53 53 52 51 50 49 49 50 50 51 51 51 52 52 53 53 54 54 55 55 54 54 53 52 51 50 50 49 47 46 47 46 45 44 42 41 41 40 40 39 39 38 38 38 37 36 36 35 35 34 34 33 34 34 34 33 33 32 31 30 30 31 31 32 32 31 29 28 28 29 30 30 30 31 31 32 32 31 31 31 31 31 30 29 30 31
57 56 56 56 54 53 52 51 51 51 51 51 51 52 51 52 52 52 53 53 54 55 55 54 54 53 51 51 51 51 48 48 48 48 47 45 43 43 42 42 41 40 40 40 39 39 38 38 37 37 37 36 36 35 35 36 36 35 35 34 34 33 32 34 34 33 33 32 31 30 29 30 32 33 31 32 32 33 33 33 33 34 33 32 31 31 32 34
59 58 58 58 56 55 54 53 53 52 53 53 52 52 52 52 52 53 53 53 54 54 55 55 54 54 52 52 53 52 51 50 50 49 48 46 45 45 44 43 42 42 41 41 41 40 40 40 39 39 39 38 38 38 37 38 38 37 36 35 35 35 35 37 36 35 35 33 32 33 32 32 35 36 33 33 34 34 34 34 35 35 35 34 33 33 34 35
61 60 59 59 58 58 57 56 55 54 54 54 54 54 53 54 53 54 54 54 55 55 55 55 55 54 53 53 55 54 53 52 51 50 49 48 48 47 46 45 44 43 43 42 42 42 42 41 41 41 41 41 40 41 40 40 40 39 38 36 38 39 38 38 38 36 36 35 34 35 35 34 37 38 35 34 34 34 35 35 36 36 36 35 35 35 36 36
61 60 60 59 59 59 59 59 57 56 55 55 55 55 55 55 55 55 55 55 55 55 55 55 55 55 53 54 56 55 54 53 52 51 50 50 50 48 48 46 46 45 44 44 44 43 43 43 43 43 43 43 44 44 42 41 41 41 40 39 41 43 40 38 38 38 36 36 36 36 37 37 38 39 37 36 35 35 35 35 35 36 36 36 36 37 37 37
61 61 60 60 60 60 60 61 60 58 57 56 56 56 56 55 55 56 56 56 56 56 56 55 56 56 54 54 56 56 55 54 53 53 52 52 51 50 49 48 48 47 46 46 46 45 45 45 44 44 44 46 47 46 43 41 43 43 43 43 43 43 43 39 38 38 37 36 37 38 39 38 38 39 38 38 37 36 36 36 36 36 37 37 38 38 39 39
62 61 60 60 60 60 61 61 61 61 60 58 57 57 57 56 56 56 56 57 56 57 57 57 58 56 53 54 56 57 57 55 55 54 53 53 52 52 51 50 50 50 49 49 48 48 47 46 45 44 47 50 49 46 43 42 44 45 45 45 44 44 44 42 39 39 39 37 36 38 40 39 37 38 39 39 38 38 38 38 38 38 39 39 40 41 41 41
63 61 61 61 61 61 61 61 61 61 61 60 58 58 58 57 57 56 56 56 56 57 57 57 58 57 55 55 57 58 58 57 56 55 54 54 54 53 53 53 52 52 52 51 51 50 49 47 45 46 50 52 49 46 43 44 46 46 45 45 45 45 45 45 42 40 40 38 38 39 40 41 39 38 40 40 39 40 40 40 40 40 41 42 43 43 43 43
64 63 62 61 61 61 61 61 61 61 61 61 60 59 58 58 58 57 56 55 55 56 56 56 57 57 56 57 59 59 59 59 57 56 56 56 55 55 54 54 54 54 54 54 53 52 51 47 46 50 53 51 48 47 46 46 47 47 45 45 46 47 47 48 45 43 41 39 40 42 43 44 41 40 42 42 41 42 42 42 42 43 44 45 45 45 45 45
66 65 65 63 62 62 61 61 61 61 62 62 61 60 59 60 60 58 57 56 55 55 55 55 56 56 56 57 59 60 60 59 58 57 58 58 57 56 56 56 56 55 55 55 54 53 52 47 49 54 55 51 49 49 49 48 48 48 47 46 46 47 49 49 46 45 44 41 42 45 46 46 44 42 44 45 44 44 44 44 45 45 46 46 46 46 46 47
67 66 66 66 65 64 62 61 62 61 61 62 63 63 62 62 61 59 59 57 55 55 55 55 56 55 56 57 58 59 59 58 58 58 59 59 58 58 58 58 57 57 57 56 54 54 52 49 52 55 54 52 51 50 50 49 49 49 49 48 47 49 51 50 47 45 46 45 44 46 47 47 46 45 47 47 46 46 46 46 46 47 47 47 47 48 48 49
68 67 66 66 66 66 64 62 62 62 62 62 64 66 65 64 63 62 61 58 55 56 55 54 55 56 56 56 57 58 57 57 58 58 59 60 60 60 59 59 60 58 56 56 57 56 52 50 52 54 53 53 52 51 51 50 49 49 49 48 48 50 51 49 45 45 48 47 45 47 47 47 47 47 48 48 48 48 47 47 48 48 48 49 49 50 50 51
71 70 68 67 66 65 65 64 62 62 63 63 65 67 67 66 65 65 63 60 56 54 53 52 53 54 55 56 57 57 55 56 58 57 60 61 60 61 60 60 61 58 56 58 59 57 54 50 52 55 55 54 53 52 53 52 51 50 50 49 50 51 51 48 46 46 48 47 46 48 46 46 48 48 49 49 49 49 49 49 49 50 50 51 52 52 53 53
74 74 72 70 68 66 66 64 62 63 64 64 66 67 68 68 68 67 67 64 57 54 54 52 50 51 52 54 55 55 55 56 56 56 59 60 60 62 61 61 61 59 58 60 60 58 55 51 52 56 56 55 55 53 54 54 54 52 49 50 53 52 50 50 48 47 48 46 47 49 46 45 49 49 49 50 50 50 50 51 51 52 52 53 54 54 54 54
76 76 74 73 72 69 68 65 65 66 65 67 68 67 67 68 70 70 69 67 58 53 55 53 50 48 48 51 53 56 57 53 53 57 60 60 61 63 62 60 60 59 58 60 62 58 54 52 54 58 58 57 56 54 55 57 57 53 49 51 55 53 51 51 50 50 48 47 48 50 47 45 48 50 51 51 51 51 52 53 53 54 54 55 55 56 55 55
78 77 77 76 75 73 71 68 68 68 67 70 69 67 68 69 71 71 71 71 59 50 53 55 51 47 47 51 54 57 56 51 54 60 60 61 63 63 62 60 59 60 59 61 61 57 54 56 56 58 59 58 57 56 57 60 59 53 50 54 56 54 53 52 51 51 50 48 48 49 49 48 47 50 53 52 52 53 54 55 55 55 56 56 57 57 56 55
81 80 79 78 77 76 74 72 71 69 70 71 70 69 69 69 72 72 75 74 58 47 51 54 53 50 49 52 55 58 56 54 58 61 62 64 64 63 63 61 60 60 61 61 60 57 56 57 58 60 61 59 59 60 61 62 59 55 54 56 56 56 55 54 53 52 51 50 47 48 51 50 48 50 54 53 53 55 56 57 57 57 57 58 58 57 57 57
84 83 81 80 79 77 76 74 74 74 74 73 71 71 71 72 73 73 78 74 56 46 49 53 56 55 54 55 57 59 58 58 60 62 65 66 65 63 62 61 60 59 60 60 59 57 56 58 61 62 61 60 61 62 62 62 59 57 56 57 57 57 57 56 55 53 53 50 47 49 54 54 50 51 54 55 55 57 58 58 58 59 59 59 59 59 59 59
85 85 84 83 81 79 78 76 77 78 78 77 75 74 74 75 75 77 79 70 55 47 47 52 59 61 62 62 61 61 61 61 62 64 66 66 65 64 61 60 58 56 57 58 57 56 56 58 61 61 61 62 62 62 62 61 60 58 58 59 58 59 59 58 56 55 54 50 49 53 57 57 52 49 53 58 59 58 58 59 59 60 60 60 61 61 61 61
85 86 86 85 82 80 80 79 79 81 81 81 80 78 78 77 78 80 76 63 55 50 49 53 60 62 64 65 65 66 66 66 66 66 66 65 65 64 60 59 59 56 55 56 56 57 57 58 59 60 61 62 62 62 62 62 61 60 60 60 59 59 59 58 57 57 56 52 52 56 59 58 53 49 52 58 61 60 59 60 61 61 61 62 63 63 63 63
86 87 88 87 85 82 79 78 80 82 83 83 84 83 80 79 80 77 67 60 60 55 50 55 59 63 67 67 68 69 70 70 70 68 66 65 65 62 61 61 60 59 57 56 58 59 59 58 59 60 61 61 62 62 62 62 62 62 61 60 60 60 59 58 58 58 57 55 55 58 60 57 52 51 53 56 60 62 61 62 62 62 63 64 65 66 66 66
87 89 90 89 86 83 80 80 82 84 84 84 85 84 84 85 80 70 63 64 65 58 54 57 62 66 68 68 68 70 71 71 68 66 65 65 64 62 62 62 61 61 59 57 59 60 59 59 59 60 62 63 64 63 62 63 62 62 61 59 60 60 59 58 59 59 58 57 56 58 59 56 52 54 57 57 59 62 63 63 64 64 65 66 67 68 68 69
90 91 91 89 88 87 85 84 85 86 86 85 85 85 88 89 78 67 66 67 65 63 59 60 63 66 68 68 67 68 70 68 66 66 65 64 64 63 63 63 62 62 62 60 60 61 62 61 60 62 63 64 65 64 63 63 63 61 61 60 60 60 60 60 61 60 59 58 57 57 57 55 53 57 60 60 59 62 64 65 64 64 65 66 68 69 70 71
93 93 91 90 90 90 88 87 88 89 89 87 87 89 90 86 76 71 72 68 67 67 64 64 66 67 67 67 67 68 69 67 66 67 66 65 65 63 63 63 61 62 63 63 62 63 64 62 61 64 65 64 65 65 63 64 63 61 61 61 60 61 64 63 61 60 60 59 58 57 57 57 57 60 62 62 62 63 65 64 64 65 66 67 68 69 71 72
96 95 94 94 93 92 90 89 90 91 91 91 93 94 89 82 77 77 76 72 71 70 68 69 70 69 68 67 68 70 71 70 69 70 69 68 67 65 63 63 63 63 64 65 65 64 65 63 62 65 65 64 65 65 64 64 63 62 62 61 62 66 67 64 62 62 62 61 59 59 60 60 61 61 61 63 64 65 65 65 65 66 67 68 69 70 71 72
97 97 97 97 95 94 93 92 93 94 95 96 98 96 89 83 80 80 79 77 75 73 72 72 72 71 71 69 70 72 73 73 72 72 72 71 70 67 65 65 66 65 65 67 66 64 65 63 62 65 65 65 66 66 65 65 63 62 63 63 66 69 67 65 65 64 64 64 62 61 61 62 62 61 60 62 64 65 64 65 67 68 69 70 70 71 72 73
96 97 98 99 98 96 96 97 99 99 99 101 101 98 91 86 83 82 82 81 78 77 76 74 73 72 71 71 71 72 74 75 74 75 75 73 70 68 67 68 68 67 68 69 67 64 65 65 63 64 65 65 67 66 65 64 64 64 65 66 68 69 67 67 67 66 66 66 64 62 62 62 62 61 61 63 65 65 65 68 71 72 72 72 73 73 74 75
93 91 91 94 98 99 98 99 101 102 103 105 104 100 93 89 86 85 85 84 82 80 78 76 75 74 73 73 72 72 74 76 75 76 75 73 71 68 69 71 71 69 70 72 70 67 68 67 64 63 66 67 67 66 64 65 67 68 68 68 69 68 68 68 68 68 68 67 66 65 63 62 62 61 62 64 64 64 67 71 75 75 75 75 75 76 77 78
88 85 80 81 88 93 94 94 96 100 103 103 103 100 96 93 91 88 86 85 84 83 80 78 79 78 75 75 74 73 75 76 75 76 74 72 70 69 69 71 71 70 72 75 75 72 71 71 67 65 67 68 67 66 67 68 69 69 68 68 68 69 70 69 69 70 70 70 69 69 66 63 61 61 62 62 63 64 69 73 76 76 77 78 79 80 80 81
85 83 77 74 78 83 86 87 88 92 97 98 98 98 97 95 93 90 87 86 85 84 83 82 82 81 79 77 76 75 75 76 75 76 74 70 69 69 70 71 71 71 73 76 76 74 74 74 73 70 69 70 69 68 70 71 70 70 69 68 68 70 71 72 72 72 74 73 72 71 68 63 62 62 62 63 64 67 72 75 76 77 79 80 82 83 84 84
87 85 81 78 77 80 85 87 86 87 90 92 93 95 96 95 93 91 89 88 87 85 84 84 83 83 82 80 78 78 79 78 77 76 74 71 70 71 71 72 72 72 73 75 75 75 76 76 76 74 71 72 73 72 72 72 71 71 70 69 69 71 73 75 76 75 74 74 73 73 71 65 64 66 65 65 67 71 75 78 79 80 82 84 86 86 86 87
88 87 86 84 83 84 89 93 92 89 88 88 89 91 92 90 89 89 88 88 88 86 84 83 82 83 82 81 81 81 81 81 79 78 76 74 74 74 75 75 75 74 75 75 74 75 77 78 78 77 75 76 76 75 73 72 71 69 69 70 72 74 76 78 77 76 74 73 73 75 73 69 68 68 67 68 71 75 78 80 82 84 86 88 89 89 89 91
88 88 89 89 88 88 92 96 97 94 90 88 88 89 88 86 86 85 85 85 86 85 84 83 82 82 81 81 81 82 82 82 80 78 76 76 76 76 78 78 78 77 77 75 75 76 77 79 80 81 79 77 76 76 74 73 72 71 72 74 75 76 77 78 78 78 77 74 74 77 76 74 72 71 72 75 77 78 81 82 84 88 90 91 91 91 92 92
87 89 91 93 93 93 95 97 96 94 92 90 90 90 89 87 86 84 83 83 84 84 84 83 82 81 80 80 80 80 81 80 79 77 74 72 71 73 77 79 80 80 79 78 77 78 78 78 80 82 80 78 78 77 75 75 75 76 76 77 78 79 80 81 82 83 80 77 79 80 80 80 79 78 79 81 82 83 85 86 88 91 93 93 93 93 93 94
86 87 88 90 93 95 97 99 99 97 96 95 94 93 92 89 87 85 85 84 84 83 83 82 81 81 81 80 79 78 78 77 78 77 73 69 68 70 73 77 79 81 81 81 80 81 81 80 81 80 79 80 81 79 78 78 78 80 80 81 82 83 84 86 88 88 86 85 85 84 84 86 85 85 87 86 86 87 88 90 93 95 95 95 95 95 95 95
90 89 87 87 89 90 92 95 97 97 95 95 95 94 93 91 89 88 87 86 85 84 84 83 82 81 80 80 80 79 78 78 79 78 76 73 72 72 74 76 77 78 80 82 83 85 85 84 82 80 81 82 82 80 80 80 81 82 84 85 85 86 88 90 91 91 91 92 89 86 89 91 91 92 94 92 91 92 92 94 96 96 95 95 94 95 95 95
96 94 91 90 90 88 86 86 88 90 91 92 91 89 88 89 89 88 87 86 86 85 85 84 83 81 80 80 81 81 80 79 78 77 77 78 77 78 79 80 81 81 80 81 84 86 88 88 86 85 85 85 84 83 83 83 83 84 86 87 87 89 91 93 93 93 95 95 91 89 93 94 94 98 99 96 97 99 99 100 100 99 98 96 95 95 96 96
101 99 98 97 95 92 88 85 86 88 89 90 91 89 88 88 87 86 86 85 84 83 83 82 81 81 82 83 84 83 82 81 79 77 78 79 79 80 81 83 85 86 85 83 84 85 88 89 89 91 92 91 90 89 88 88 88 88 89 89 90 92 94 96 96 97 98 97 94 94 98 98 98 101 102 102 103 104 104 104 104 105 104 103 101 100 99 98
106 103 103 103 101 97 94 92 91 91 91 93 94 94 92 91 91 90 89 88 87 86 84 81 78 80 83 85 86 86 84 83 83 82 81 81 81 81 82 84 87 88 87 85 84 84 84 85 87 91 93 95 95 94 94 94 94 93 93 92 91 94 97 97 97 97 99 99 97 99 101 100 100 103 105 106 106 106 106 106 105 105 105 104 104 103 102 101
110 108 107 107 106 103 99 97 96 96 96 96 97 97 96 95 95 94 94 94 94 93 91 88 85 86 87 88 89 88 88 88 87 85 84 84 83 83 85 86 88 88 86 84 83 83 82 83 83 85 88 90 90 91 92 93 94 96 95 91 92 96 97 96 96 98 100 100 100 102 102 101 102 105 107 108 108 108 108 107 107 106 105 104 104 103 104 104
115 114 112 111 111 109 104 101 100 100 100 98 98 98 99 99 99 99 99 99 99 98 95 94 94 94 92 91 90 90 90 90 89 87 86 86 85 85 86 86 87 87 85 83 83 83 83 84 84 85 87 88 87 87 88 90 93 95 91 88 92 96 97 98 100 101 102 103 105 105 105 105 107 108 108 108 109 109 110 109 108 107 106 106 106 107 108 109
Wind_Direction
237 237 237 237 237 237 236 237 237 238 239 240 241 242 242 243 244 244 244 245 247 248 249 249 250 250 251 252 253 255 256 257 259 261 262 262 262 263 262 262 261 260 260 260 260 260 261 262 262 263 264 264 263 263 262 262 263 264 265 267 269 272 274 276 277 278 278 277 277 276 274 273 270 270 273 276 279 283 289 288 285 287 288 288 288 286 287 290
238 238 237 237 237 237 238 238 238 239 240 240 241 242 243 243 244 245 246 246 247 249 249 250 251 252 252 253 254 256 257 257 259 260 261 261 262 262 262 261 261 261 261 261 261 262 263 264 265 266 266 266 265 265 264 264 265 265 266 268 270 272 274 276 278 279 280 279 279 279 277 276 273 271 273 275 277 281 288 288 286 288 287 284 285 286 286 287
239 239 239 238 238 238 238 238 238 239 240 241 241 242 243 243 244 245 246 247 248 249 250 251 252 253 254 254 255 256 257 257 259 260 260 260 261 261 261 261 261 261 262 262 262 263 264 265 266 267 267 267 267 266 266 266 266 267 268 268 270 273 274 275 277 279 279 279 278 279 279 278 275 274 275 276 276 279 285 288 288 290 289 284 282 282 283 284
238 239 239 239 239 239 239 238 239 239 239 240 241 242 242 243 244 244 245 246 247 248 249 250 251 252 254 254 255 256 256 257 258 258 259 259 260 261 261 261 262 262 262 262 263 263 264 266 266 267 268 268 268 268 267 267 267 268 269 269 271 273 274 275 277 278 278 278 277 276 277 277 276 276 278 279 278 280 284 287 288 290 289 285 281 279 278 279
237 238 239 240 240 240 240 240 239 239 239 240 241 241 242 243 243 243 244 245 246 248 249 250 251 251 253 253 254 255 255 256 256 257 258 258 259 260 260 261 262 262 263 262 263 263 264 264 265 266 267 268 268 268 268 269 269 269 269 271 272 273 274 275 276 276 277 277 277 275 275 275 274 275 277 278 278 281 284 286 288 289 288 286 283 280 277 277
237 238 239 240 240 241 241 241 241 241 240 240 241 241 242 242 243 243 244 244 245 247 248 249 250 251 252 252 253 254 254 255 255 256 257 258 259 260 260 261 261 262 262 262 262 263 263 264 264 265 266 267 267 267 267 268 268 269 269 271 272 273 274 275 276 276 275 274 275 274 274 274 274 275 275 276 276 277 280 283 285 286 288 288 286 283 280 279
238 238 239 240 241 242 242 242 242 242 241 241 242 242 243 243 243 244 244 244 245 246 247 248 249 250 251 251 252 252 253 254 255 255 256 258 259 259 259 260 261 261 261 261 262 262 263 264 265 265 266 267 267 267 267 267 267 267 269 269 271 272 273 274 274 274 274 272 272 271 272 273 274 275 275 275 274 275 276 277 279 281 284 286 286 284 282 280
238 239 240 241 242 243 243 244 243 243 243 243 243 243 243 243 244 244 244 245 245 246 247 248 249 250 250 251 251 252 252 253 255 255 256 257 257 258 258 259 259 260 260 260 261 262 263 264 265 265 266 266 267 267 267 268 268 267 268 269 269 270 271 272 273 273 272 271 270 269 270 271 273 275 275 274 275 275 275 274 275 277 278 280 282 283 282 280
239 240 240 241 242 243 244 244 245 245 245 245 245 244 244 244 244 245 245 245 246 246 247 248 249 250 250 251 251 252 252 253 254 255 255 256 256 257 257 258 258 259 259 259 260 261 262 263 264 264 265 266 266 267 267 267 267 267 267 268 268 269 270 271 272 272 271 270 269 269 270 271 272 273 273 274 275 274 275 275 276 275 275 276 277 279 280 280
240 240 241 242 243 243 244 245 245 246 246 246 246 246 246 246 246 246 246 246 247 247 247 248 249 249 250 251 251 252 252 253 254 254 254 255 256 257 257 258 258 258 258 259 259 260 261 262 263 264 265 265 266 267 267 267 267 268 267 267 267 268 269 270 270 270 269 269 269 271 272 273 273 272 272 273 274 274 275 277 277 276 275 275 276 277 278 279
240 240 241 242 244 244 245 245 246 246 247 247 247 248 248 248 247 247 248 248 248 248 248 248 249 250 250 251 252 252 252 253 254 255 255 255 256 257 257 257 257 257 257 258 259 260 261 262 263 264 264 265 266 267 267 268 268 268 268 268 268 268 268 268 268 268 268 268 270 272 273 274 273 272 272 273 274 275 277 278 278 278 278 279 279 279 280 281
239 240 241 242 243 244 246 246 247 247 247 248 248 248 248 249 249 248 248 249 250 250 249 249 250 250 250 251 252 252 252 253 254 255 256 256 256 256 257 257 257 257 257 258 259 260 261 262 263 263 264 265 266 267 267 268 268 268 269 269 269 268 268 268 267 267 268 270 271 272 272 273 273 272 272 273 274 275 277 278 279 279 279 279 280 281 282 283
239 239 240 241 242 243 245 246 246 247 247 248 248 248 248 248 249 249 248 249 249 250 250 250 250 250 251 252 252 252 252 253 254 255 256 257 257 256 256 256 256 257 258 258 259 260 261 261 262 263 264 264 265 266 267 267 267 268 269 270 270 270 269 268 266 267 269 270 272 272 272 273 273 271 271 273 274 275 277 279 280 280 280 280 281 282 282 282
238 239 239 240 241 242 243 244 246 246 247 247 248 248 248 247 248 248 248 248 248 249 250 250 250 250 251 252 252 252 252 252 253 255 256 257 258 257 256 256 257 257 257 258 259 259 260 261 262 262 263 263 264 265 265 266 268 268 269 270 271 269 267 267 267 268 269 270 271 272 271 271 272 271 271 272 274 275 277 279 279 280 281 281 281 281 280 279
238 238 239 239 240 241 242 243 245 246 246 247 247 247 248 247 247 247 247 247 247 247 248 249 249 250 250 251 252 252 252 252 253 254 256 257 257 257 257 257 257 257 257 257 258 258 259 260 261 262 263 263 263 263 263 265 267 268 269 270 269 267 265 267 269 269 269 271 271 271 270 269 270 271 272 272 273 274 275 276 277 278 280 281 281 280 279 279
238 238 238 239 240 241 241 242 243 245 246 247 247 247 248 248 247 247 247 248 248 248 248 248 249 249 249 250 252 252 253 253 254 254 255 255 256 257 257 257 256 257 257 257 257 258 258 259 260 261 262 263 263 262 262 265 267 268 268 267 266 267 266 266 268 269 269 271 272 272 271 270 270 272 274 273 272 273 273 274 275 276 278 279 279 279 279 279
238 238 238 239 239 240 241 241 242 243 245 246 247 247 248 248 249 248 248 248 248 248 248 248 249 249 249 251 252 253 253 253 254 254 254 254 255 256 256 256 257 256 256 256 256 257 257 258 260 261 263 263 262 262 263 265 266 266 266 265 265 267 268 267 267 269 269 269 270 271 271 271 272 274 274 273 272 272 272 273 274 275 276 277 277 277 278 278
237 238 239 239 239 240 241 242 242 242 244 245 246 247 248 248 249 249 249 248 248 248 248 248 249 249 249 250 252 253 253 253 253 253 254 254 255 255 256 256 256 256 256 256 256 257 257 258 260 262 263 262 263 264 265 265 265 265 265 266 267 267 269 269 267 268 269 269 269 270 271 271 271 272 273 273 273 273 272 272 273 274 275 275 275 275 276 276
237 238 239 240 240 240 241 242 242 243 243 245 246 247 247 248 249 249 250 250 250 250 250 250 250 250 249 250 251 252 252 252 252 253 254 254 255 255 255 256 257 257 257 257 257 257 258 259 261 262 262 262 264 266 266 265 265 265 265 267 268 268 269 269 268 267 269 270 270 270 271 271 270 271 272 272 272 273 272 273 274 274 274 274 274 275 275 275
238 239 240 241 241 241 242 242 243 243 244 244 246 247 247 248 249 249 249 251 251 252 252 252 253 252 251 251 252 252 253 253 253 254 254 254 254 255 256 257 257 257 257 257 258 258 259 260 262 261 260 262 264 265 264 264 264 265 265 266 267 268 268 268 269 269 269 270 272 272 271 271 271 271 272 272 272 272 273 274 274 274 274 274 275 276 276 276
239 240 241 242 242 242 243 243 243 244 244 245 245 246 247 247 247 247 248 250 251 253 253 253 253 253 253 253 253 254 255 255 255 255 255 255 255 256 256 256 257 257 258 258 258 259 260 260 260 260 261 263 264 264 263 263 263 264 264 264 264 266 267 268 269 270 271 270 270 271 271 272 272 272 272 272 273 273 274 274 274 274 274 275 276 276 276 277
238 239 240 241 242 242 243 243 243 244 244 245 245 246 246 246 246 246 246 248 249 251 251 252 252 253 253 253 254 255 256 257 257 257 257 257 257 256 256 257 257 257 258 259 259 259 259 260 260 261 263 263 263 264 264 263 264 264 264 265 265 265 266 267 269 271 272 271 269 270 271 272 273 273 273 274 274 274 274 274 274 275 275 276 276 277 278 278
237 238 239 240 241 241 242 243 243 244 245 244 245 245 245 246 246 245 245 246 247 250 250 251 251 251 252 253 254 255 256 257 258 258 258 258 257 256 256 257 257 257 259 260 259 258 258 259 261 262 263 263 263 263 264 263 263 264 265 266 265 265 266 268 270 271 271 270 270 270 271 273 273 273 273 274 274 275 275 275 275 276 276 277 277 278 279 280
237 238 238 239 240 240 241 242 243 245 245 245 245 245 245 245 246 246 245 244 245 249 250 250 251 252 252 253 254 255 256 257 257 257 258 257 257 257 256 256 257 257 258 259 259 259 258 259 262 263 263 263 263 263 264 264 263 264 265 266 266 266 268 269 269 268 269 270 271 270 270 272 273 272 273 273 274 274 275 276 276 277 277 278 279 280 281 281
238 238 238 239 239 240 241 241 243 244 245 245 245 245 245 245 246 245 245 243 242 246 251 251 251 252 253 253 254 255 254 254 256 256 257 257 256 256 255 255 256 256 257 258 259 259 259 260 262 263 263 263 264 264 265 264 263 263 265 267 267 267 268 269 268 267 268 270 270 269 270 271 272 273 273 273 274 274 275 276 276 277 278 279 280 281 282 282
239 239 239 239 240 240 241 241 242 243 244 245 245 246 246 245 245 245 246 244 239 242 250 252 251 251 253 255 254 253 252 253 256 256 256 256 255 255 255 255 256 256 256 258 258 259 260 261 261 262 263 263 264 265 265 265 263 263 264 266 266 267 267 268 268 268 267 268 269 270 270 269 270 273 273 273 274 275 275 276 276 277 278 280 281 281 281 281
241 241 240 240 240 240 241 241 242 243 243 244 245 246 246 246 246 246 246 245 238 237 248 253 253 251 252 254 254 254 252 252 255 255 255 255 256 256 255 255 256 257 256 257 258 259 260 260 260 262 263 263 265 265 265 265 265 265 265 264 265 266 266 265 266 266 266 266 267 270 271 269 270 272 273 273 275 276 276 276 277 278 279 280 281 281 280 279
241 242 242 241 241 240 240 241 243 244 244 244 244 244 245 246 246 246 247 245 238 234 244 252 255 254 252 253 255 257 255 251 253 255 256 256 256 256 257 256 255 257 258 258 259 260 260 261 262 262 262 263 265 265 265 266 267 267 266 265 266 266 265 265 264 265 266 266 268 270 271 270 269 271 273 274 275 276 276 277 278 279 280 281 281 280 278 277
240 242 243 243 242 241 241 241 243 244 245 245 244 243 243 244 245 246 247 245 238 233 239 248 254 255 254 254 254 256 256 253 252 254 255 256 257 258 259 259 258 259 261 262 262 262 262 262 262 262 263 264 264 264 265 267 268 267 266 266 266 266 266 266 266 266 266 267 269 269 269 268 267 269 274 275 275 276 277 278 279 280 281 281 280 278 276 276
240 241 243 244 243 243 242 242 243 244 245 246 245 244 243 242 243 244 245 244 241 235 234 242 250 253 254 254 254 255 256 255 254 254 255 257 259 260 261 263 263 262 263 264 264 264 263 262 262 263 263 263 264 264 265 266 267 266 265 266 266 267 268 268 269 269 268 268 268 267 266 267 267 270 274 277 276 276 277 278 278 280 281 281 279 276 275 275
240 241 243 244 244 244 243 244 244 245 246 246 247 246 244 244 244 244 246 247 246 237 230 237 246 251 253 254 255 255 255 255 255 255 255 256 258 260 262 264 264 263 262 264 265 264 262 261 262 263 263 264 264 265 265 265 265 265 265 266 266 267 268 269 269 269 269 268 266 266 266 268 270 271 273 275 277 276 276 277 278 280 280 279 277 275 274 274
239 241 242 243 243 244 244 246 247 247 247 248 248 249 248 248 247 247 249 250 248 240 233 237 243 247 249 250 252 253 253 254 254 255 256 257 258 259 261 261 262 263 261 261 262 261 261 262 262 263 264 264 264 263 264 264 264 264 265 266 267 267 267 268 268 268 268 267 266 267 268 270 273 272 270 272 275 276 277 278 279 280 279 278 277 275 273 273
238 240 242 242 242 243 245 246 248 249 249 249 250 250 251 250 248 249 250 248 246 242 237 238 240 243 246 247 249 251 253 254 256 257 257 258 258 258 259 260 261 262 260 259 260 261 261 261 262 262 262 263 263 263 264 264 264 265 266 266 267 268 268 268 267 267 268 268 268 268 270 272 273 272 270 269 272 276 278 279 279 279 278 278 277 275 274 273
238 239 241 242 242 242 243 245 247 249 249 250 251 251 251 249 248 249 249 248 246 243 238 237 238 241 244 246 249 251 254 256 257 258 258 258 258 258 259 260 260 261 261 260 261 262 261 261 262 262 262 263 264 264 264 265 265 266 266 266 267 268 268 266 266 267 268 269 269 270 272 273 272 271 271 271 272 274 276 277 277 277 276 276 275 274 273 274
238 239 240 242 242 242 242 243 246 248 249 250 251 252 251 250 248 248 248 248 247 245 241 238 238 240 242 245 248 251 254 255 256 257 258 258 259 259 259 260 261 261 262 261 261 261 262 262 262 263 264 264 265 265 265 265 265 266 266 267 268 267 266 265 266 267 268 268 269 271 272 272 271 270 272 274 274 273 272 273 274 274 273 272 272 271 271 272
239 239 240 242 242 242 242 243 245 247 249 250 250 251 252 252 249 247 247 247 247 246 244 240 239 240 241 243 246 249 252 253 254 256 257 257 258 258 259 261 261 261 262 262 261 260 261 262 262 264 264 265 265 265 265 265 265 265 266 266 266 265 265 266 266 267 267 268 269 270 270 270 270 271 273 274 273 273 273 273 273 273 272 271 270 270 270 271
240 241 242 243 243 243 244 244 246 247 248 249 251 251 251 251 250 249 248 247 246 246 246 243 241 241 241 242 244 246 249 251 253 255 255 256 256 257 259 260 261 261 262 262 262 261 262 262 262 263 263 264 264 265 265 265 266 265 265 265 264 264 265 266 266 267 268 268 268 268 269 270 271 272 272 272 273 274 275 275 274 273 271 271 271 271 271 271
243 244 245 245 245 245 245 246 246 247 247 249 250 251 251 250 250 250 248 247 246 246 246 245 244 243 242 242 243 245 248 250 251 253 255 255 256 257 258 260 261 261 262 263 264 263 263 261 260 262 263 263 264 264 265 266 265 263 262 262 263 265 266 267 267 267 267 268 268 268 268 269 271 272 273 274 275 276 277 276 274 273 272 272 272 272 272 272
244 245 246 247 247 246 246 247 247 247 247 248 249 250 251 251 251 250 249 248 247 246 246 247 247 245 244 244 243 244 247 249 250 251 253 255 256 257 258 260 261 262 263 264 264 263 263 262 261 261 263 263 263 264 264 263 263 262 261 263 264 266 266 267 267 267 267 268 268 267 267 269 272 274 275 276 277 279 279 277 275 274 274 274 274 274 273 273
242 243 244 246 248 248 246 245 246 246 246 247 247 248 250 250 250 251 251 249 248 247 247 247 248 247 246 246 246 245 247 249 250 251 252 254 256 257 258 259 260 261 262 263 263 263 263 263 261 260 262 263 263 264 263 261 261 262 263 264 265 266 266 266 267 267 267 266 266 267 268 270 273 274 275 277 279 280 279 277 277 277 277 276 276 275 275 275
238 238 237 240 245 249 248 245 243 244 245 245 246 247 248 249 250 252 253 252 250 248 247 247 248 248 248 247 248 248 249 249 250 251 251 252 254 256 256 258 259 259 260 262 264 264 263 263 262 261 262 264 264 264 263 262 261 262 262 263 264 266 267 267 266 265 266 267 268 269 269 270 270 271 273 277 280 280 279 279 279 280 280 279 278 278 278 278
235 234 233 234 239 245 249 248 244 243 244 245 246 246 248 249 250 251 253 253 251 250 249 248 248 249 250 249 249 250 251 250 249 250 251 251 252 254 256 258 258 259 260 262 264 266 266 265 265 263 262 263 263 263 263 263 263 263 264 265 265 265 266 265 265 266 267 269 271 270 269 269 269 270 272 275 277 278 278 280 281 281 281 280 279 279 280 279
234 233 233 233 235 240 245 248 248 246 246 246 246 247 248 249 250 251 252 253 253 252 251 251 251 251 251 251 251 251 252 252 250 249 250 250 251 254 257 258 259 259 260 262 264 266 267 267 266 265 263 262 263 263 264 266 266 266 266 265 264 264 265 266 267 268 269 270 271 272 271 270 270 270 271 272 273 275 277 280 281 282 281 280 280 280 279 278
235 234 233 233 234 237 241 246 249 249 248 247 247 248 249 249 250 251 252 253 253 253 252 252 252 253 252 253 253 253 253 253 253 252 252 252 252 253 255 257 258 259 260 261 263 265 266 267 268 267 265 264 264 264 265 266 266 265 264 264 265 266 267 268 269 268 268 270 271 272 272 271 270 269 269 270 271 274 276 278 280 281 281 281 279 278 277 276
236 236 235 235 235 236 239 242 246 248 248 248 248 248 249 249 250 250 251 252 253 253 253 252 253 254 254 254 254 254 255 255 255 254 254 254 253 253 254 255 256 257 258 260 261 263 265 266 267 268 268 268 267 265 265 264 264 264 264 265 266 267 267 268 269 268 269 270 270 271 272 272 271 269 269 268 270 272 274 276 277 278 279 279 278 276 275 274
236 236 236 236 237 238 239 242 244 246 248 249 250 251 251 251 251 251 251 252 253 254 254 254 254 254 254 254 255 256 256 256 255 253 253 254 254 253 254 255 256 257 257 258 259 261 262 264 266 268 270 269 268 267 266 265 265 265 266 266 267 268 269 269 269 269 270 269 269 271 273 273 272 270 268 268 269 271 274 275 276 277 278 277 275 274 273 273
235 236 236 237 239 240 241 243 246 248 249 251 252 252 252 252 252 251 251 251 252 253 255 256 256 255 254 254 255 257 257 256 255 254 254 254 255 255 256 256 257 258 258 258 258 259 260 261 263 266 267 268 269 269 268 268 268 268 268 268 268 269 270 270 270 271 272 271 271 272 273 273 272 271 269 268 268 269 271 272 273 275 276 275 273 273 273 273
235 236 237 237 239 241 241 243 246 248 249 250 251 250 250 250 250 250 251 252 252 253 254 255 255 255 255 254 255 256 257 257 257 257 256 256 255 256 256 257 258 259 260 259 259 259 259 259 260 262 264 265 267 268 269 269 269 270 270 270 269 270 270 270 271 272 273 273 273 274 273 273 273 272 271 271 270 269 268 269 269 271 272 273 272 272 273 273
233 237 238 238 238 240 241 242 243 245 247 249 250 250 250 249 249 250 250 251 252 252 253 254 254 255 255 254 254 255 256 257 257 257 257 256 256 256 256 258 259 261 262 261 260 260 260 259 259 260 261 262 263 264 266 267 268 269 270 270 270 271 270 271 271 272 273 273 273 273 272 272 272 274 274 273 272 271 271 270 270 271 272 273 274 276 277 278
233 235 238 239 239 239 241 243 243 244 246 249 251 252 252 252 252 253 254 254 254 253 253 253 253 254 254 254 255 257 259 260 259 258 257 256 256 255 256 257 259 261 263 262 261 260 261 261 260 260 261 261 262 263 265 265 266 267 268 269 271 271 272 272 274 275 275 275 275 275 274 274 275 277 278 277 277 277 277 277 277 277 277 278 279 281 282 284
233 235 236 237 238 238 239 241 242 243 244 246 248 250 252 253 254 255 256 256 256 256 255 255 254 254 254 255 257 259 261 262 261 261 260 258 257 257 257 258 259 261 263 263 263 263 264 265 265 265 265 264 264 265 266 267 268 268 268 271 273 273 274 276 277 277 279 280 280 279 279 280 280 281 281 282 283 283 282 282 282 282 283 283 284 286 287 289
233 235 236 236 236 237 237 238 239 241 242 243 245 247 249 251 253 255 256 257 258 259 258 257 256 256 256 257 258 260 261 262 262 263 263 264 263 263 263 263 263 263 264 266 267 268 270 271 272 272 273 272 271 271 272 272 271 270 272 275 276 276 277 278 279 280 281 282 282 281 282 282 282 282 282 283 283 283 284 284 285 285 286 288 289 291 294 295
Height
10758 10760 10761 10762 10764 10766 10768 10769 10771 10772 10773 10775 10776 10777 10778 10780 10781 10782 10783 10784 10785 10786 10787 10788 10789 10790 10790 10791 10792 10793 10793 10793 10794 10795 10795 10795 10796 10796 10796 10797 10797 10797 10798 10798 10798 10799 10799 10799 10799 10800 10800 10800 10800 10800 10800 10799 10799 10799 10799 10799 10799 10800 10800 10800 10801 10802 10802 10802 10802 10802 10803 10803 10802 10801 10800 10799 10798 10798 10800 10800 10800 10801 10801 10800 10799 10799 10799 10798
10754 10755 10757 10758 10760 10762 10763 10765 10767 10768 10770 10771 10772 10774 10775 10776 10778 10779 10781 10782 10782 10783 10784 10785 10786 10787 10787 10788 10789 10790 10790 10791 10791 10792 10792 10792 10793 10793 10793 10794 10794 10795 10795 10795 10796 10796 10796 10797 10797 10797 10797 10797 10798 10798 10797 10797 10797 10797 10797 10797 10797 10797 10798 10798 10799 10799 10800 10800 10801 10800 10800 10800 10800 10799 10799 10798 10796 10796 10797 10798 10798 10798 10799 10799 10798 10798 10797 10797
10749 10751 10752 10754 10755 10757 10759 10760 10762 10764 10766 10767 10769 10770 10772 10773 10774 10776 10777 10778 10779 10780 10781 10782 10783 10783 10784 10785 10786 10787 10787 10788 10788 10788 10789 10789 10790 10790 10790 10791 10791 10792 10792 10793 10793 10794 10794 10794 10795 10795 10795 10795 10795 10795 10795 10795 10795 10794 10794 10795 10795 10795 10796 10796 10797 10797 10798 10798 10799 10799 10798 10798 10797 10797 10797 10797 10795 10794 10794 10795 10795 10795 10796 10796 10796 10796 10795 10795
10744 10746 10748 10749 10751 10753 10754 10756 10757 10759 10761 10763 10764 10766 10768 10769 10770 10772 10773 10774 10775 10776 10777 10778 10779 10780 10781 10782 10783 10784 10784 10785 10785 10785 10786 10786 10787 10787 10787 10788 10789 10789 10790 10790 10791 10791 10791 10792 10792 10792 10792 10792 10792 10792 10792 10792 10792 10792 10792 10792 10793 10793 10793 10794 10795 10795 10796 10796 10796 10797 10797 10796 10795 10794 10794 10794 10793 10792 10792 10793 10792 10792 10793 10793 10794 10794 10794 10793
10740 10742 10743 10745 10747 10748 10750 10752 10753 10755 10756 10758 10760 10761 10763 10765 10766 10767 10768 10770 10771 10772 10773 10774 10775 10776 10777 10778 10779 10780 10781 10781 10781 10782 10783 10783 10784 10784 10785 10785 10786 10786 10787 10787 10788 10788 10789 10789 10789 10790 10790 10790 10790 10790 10790 10790 10790 10790 10790 10790 10790 10791 10791 10792 10793 10793 10793 10794 10794 10794 10794 10794 10793 10792 10792 10792 10791 10790 10789 10790 10790 10789 10789 10790 10791 10791 10791 10791
10735 10737 10739 10740 10742 10744 10746 10747 10749 10750 10752 10753 10755 10756 10758 10760 10761 10763 10764 10765 10766 10768 10768 10770 10771 10772 10773 10774 10776 10777 10778 10778 10778 10779 10780 10780 10780 10781 10782 10782 10783 10783 10784 10784 10785 10785 10786 10786 10787 10787 10787 10787 10787 10787 10787 10788 10788 10788 10788 10788 10788 10788 10789 10789 10790 10790 10791 10791 10791 10791 10792 10791 10790 10790 10790 10790 10789 10788 10788 10788 10788 10787 10786 10786 10787 10788 10788 10788
10730 10732 10734 10736 10737 10739 10741 10743 10744 10746 10747 10749 10750 10752 10753 10755 10757 10758 10759 10761 10762 10763 10764 10765 10766 10767 10769 10770 10772 10773 10774 10774 10774 10775 10776 10777 10777 10778 10779 10779 10780 10780 10781 10781 10782 10782 10783 10783 10784 10784 10784 10784 10784 10785 10785 10785 10785 10785 10785 10786 10786 10786 10786 10787 10787 10787 10788 10788 10788 10788 10789 10789 10788 10787 10787 10787 10786 10786 10785 10786 10786 10785 10785 10784 10784 10785 10785 10785
10726 10728 10729 10731 10733 10735 10736 10738 10739 10741 10743 10744 10746 10747 10749 10750 10752 10753 10755 10756 10758 10759 10760 10761 10762 10763 10764 10766 10767 10769 10771 10771 10770 10772 10773 10773 10774 10775 10775 10776 10776 10777 10777 10778 10778 10779 10779 10780 10780 10781 10781 10781 10781 10781 10782 10782 10782 10783 10783 10783 10784 10784 10784 10784 10784 10784 10784 10785 10785 10785 10786 10786 10786 10785 10784 10784 10783 10783 10782 10783 10783 10784 10783 10782 10782 10782 10782 10782
10721 10723 10725 10727 10728 10730 10731 10733 10735 10736 10738 10739 10741 10742 10744 10745 10747 10748 10750 10752 10753 10754 10756 10757 10758 10759 10760 10762 10763 10765 10766 10767 10767 10768 10769 10770 10771 10771 10772 10772 10773 10773 10774 10774 10775 10776 10776 10777 10777 10777 10778 10777 10778 10778 10778 10779 10779 10779 10780 10780 10781 10781 10781 10781 10781 10781 10781 10781 10781 10782 10783 10783 10783 10783 10781 10781 10780 10779 10779 10779 10780 10781 10780 10780 10780 10780 10780 10779
10717 10719 10720 10722 10724 10725 10727 10728 10730 10731 10733 10735 10736 10738 10739 10740 10742 10744 10745 10747 10749 10750 10752 10753 10754 10755 10756 10758 10759 10760 10762 10763 10763 10764 10765 10766 10767 10767 10768 10769 10769 10770 10770 10771 10771 10772 10773 10773 10773 10774 10774 10774 10774 10775 10775 10775 10775 10776 10777 10777 10778 10778 10778 10778 10778 10777 10777 10777 10778 10779 10780 10780 10780 10779 10778 10778 10777 10776 10776 10776 10776 10776 10777 10777 10777 10777 10776 10775
10712 10713 10715 10717 10719 10720 10722 10723 10725 10727 10728 10730 10731 10733 10734 10735 10737 10739 10741 10742 10744 10745 10747 10748 10750 10751 10752 10754 10755 10756 10758 10760 10758 10759 10761 10762 10763 10764 10764 10765 10765 10766 10767 10767 10768 10768 10769 10769 10769 10770 10770 10770 10771 10771 10771 10771 10772 10772 10773 10774 10775 10775 10775 10775 10774 10774 10773 10774 10775 10776 10776 10776 10776 10775 10775 10774 10773 10773 10773 10772 10772 10772 10773 10773 10773 10773 10772 10771
10706 10708 10710 10712 10713 10715 10717 10719 10720 10722 10723 10724 10726 10727 10729 10730 10732 10734 10736 10738 10739 10740 10742 10744 10745 10747 10748 10750 10751 10751 10754 10755 10754 10755 10757 10758 10759 10760 10760 10761 10761 10762 10763 10764 10764 10764 10765 10765 10765 10766 10766 10766 10767 10767 10768 10768 10768 10768 10769 10770 10771 10771 10772 10771 10770 10770 10770 10771 10772 10773 10773 10772 10771 10771 10771 10771 10770 10769 10769 10769 10769 10769 10769 10769 10769 10768 10768 10766
10700 10702 10704 10706 10708 10710 10712 10713 10715 10716 10718 10719 10721 10722 10724 10725 10727 10729 10731 10732 10734 10735 10737 10739 10741 10742 10744 10746 10745 10747 10750 10750 10750 10751 10752 10753 10755 10755 10756 10757 10757 10759 10759 10760 10760 10761 10761 10761 10762 10762 10762 10763 10763 10764 10764 10763 10764 10765 10765 10766 10766 10767 10768 10766 10766 10767 10767 10768 10768 10768 10769 10769 10767 10766 10767 10767 10766 10766 10765 10766 10765 10765 10765 10765 10765 10765 10764 10762
10694 10696 10698 10700 10702 10704 10706 10708 10709 10711 10712 10714 10716 10717 10719 10720 10722 10724 10725 10726 10728 10730 10731 10733 10735 10737 10740 10741 10740 10742 10745 10745 10746 10747 10748 10749 10750 10750 10751 10752 10753 10754 10755 10755 10756 10756 10757 10757 10758 10758 10758 10759 10759 10760 10760 10760 10760 10761 10761 10763 10762 10762 10763 10761 10762 10764 10763 10764 10765 10764 10765 10765 10762 10761 10763 10763 10763 10762 10762 10762 10761 10761 10761 10761 10761 10761 10760 10759
10688 10690 10692 10694 10696 10698 10700 10702 10704 10705 10707 10708 10710 10712 10714 10715 10717 10718 10719 10721 10722 10724 10726 10728 10730 10732 10735 10736 10734 10737 10739 10740 10741 10742 10744 10745 10744 10745 10746 10748 10749 10749 10750 10751 10751 10752 10752 10752 10753 10754 10754 10754 10755 10755 10756 10756 10756 10757 10758 10759 10757 10756 10758 10758 10758 10760 10760 10760 10761 10760 10760 10761 10759 10757 10759 10760 10759 10759 10758 10758 10758 10757 10757 10757 10757 10756 10756 10755
10682 10684 10686 10688 10690 10692 10694 10695 10698 10699 10701 10703 10705 10707 10708 10710 10712 10713 10714 10716 10717 10719 10720 10723 10724 10726 10730 10730 10729 10731 10733 10735 10737 10738 10739 10739 10740 10741 10741 10743 10744 10744 10745 10746 10746 10747 10747 10748 10748 10749 10749 10749 10749 10749 10752 10753 10753 10752 10753 10754 10751 10750 10753 10755 10755 10755 10756 10756 10756 10756 10755 10756 10755 10753 10755 10755 10755 10755 10755 10754 10754 10754 10753 10753 10753 10752 10751 10751
10676 10678 10680 10682 10684 10686 10687 10689 10691 10694 10695 10697 10699 10701 10702 10704 10706 10707 10709 10711 10712 10714 10715 10718 10718 10721 10725 10725 10724 10725 10727 10729 10732 10732 10733 10734 10735 10736 10736 10738 10738 10739 10740 10740 10741 10742 10742 10743 10744 10745 10745 10743 10742 10744 10748 10750 10749 10748 10748 10748 10747 10746 10747 10750 10752 10751 10751 10752 10752 10751 10750 10751 10751 10750 10750 10750 10750 10751 10751 10750 10750 10750 10749 10749 10748 10747 10747 10746
10669 10672 10674 10676 10677 10679 10681 10683 10685 10687 10689 10691 10693 10695 10697 10698 10700 10702 10704 10705 10707 10708 10710 10712 10712 10716 10720 10720 10719 10719 10720 10724 10725 10726 10728 10729 10730 10731 10732 10732 10733 10734 10734 10735 10736 10736 10737 10739 10740 10742 10739 10735 10737 10741 10745 10746 10743 10743 10743 10743 10743 10743 10742 10744 10747 10747 10746 10748 10748 10747 10746 10746 10748 10747 10745 10745 10746 10746 10746 10746 10746 10746 10745 10744 10744 10743 10743 10743
10663 10666 10668 10669 10671 10673 10675 10677 10679 10681 10683 10685 10687 10689 10690 10692 10694 10696 10698 10699 10701 10702 10704 10706 10707 10711 10715 10714 10713 10713 10714 10717 10719 10721 10723 10724 10724 10725 10726 10727 10727 10728 10729 10730 10730 10731 10732 10735 10737 10736 10731 10729 10733 10737 10740 10740 10738 10738 10739 10739 10738 10738 10737 10737 10741 10743 10742 10744 10743 10742 10742 10740 10743 10744 10742 10741 10742 10742 10741 10742 10741 10741 10740 10739 10739 10738 10738 10738
10657 10659 10661 10663 10665 10667 10669 10671 10673 10675 10677 10680 10681 10682 10685 10686 10688 10690 10692 10693 10695 10695 10699 10702 10703 10706 10709 10709 10707 10707 10709 10711 10714 10716 10717 10718 10718 10720 10721 10721 10721 10722 10723 10723 10725 10726 10727 10732 10733 10727 10723 10726 10731 10732 10733 10733 10732 10733 10734 10735 10734 10733 10732 10732 10735 10737 10738 10740 10738 10737 10736 10735 10737 10740 10737 10737 10738 10737 10737 10737 10736 10736 10735 10734 10734 10734 10733 10733
10650 10652 10655 10657 10659 10661 10663 10665 10667 10669 10671 10674 10675 10676 10678 10679 10680 10683 10685 10686 10689 10691 10694 10697 10697 10700 10703 10703 10702 10702 10704 10707 10709 10710 10711 10711 10713 10715 10715 10714 10715 10716 10716 10717 10720 10720 10722 10728 10725 10718 10719 10723 10726 10726 10726 10727 10727 10728 10728 10729 10730 10729 10727 10727 10730 10731 10732 10735 10734 10731 10731 10730 10732 10734 10732 10731 10732 10732 10732 10731 10731 10730 10729 10729 10729 10728 10728 10727
10642 10646 10648 10650 10652 10654 10657 10659 10661 10663 10665 10668 10669 10670 10671 10671 10673 10677 10678 10680 10684 10685 10687 10691 10693 10695 10696 10696 10697 10698 10700 10702 10703 10704 10705 10705 10707 10708 10708 10707 10709 10710 10710 10712 10714 10714 10717 10721 10717 10713 10716 10718 10720 10720 10720 10722 10722 10722 10722 10723 10725 10723 10721 10722 10726 10727 10726 10728 10728 10726 10725 10725 10726 10727 10726 10726 10726 10726 10726 10725 10725 10725 10724 10724 10723 10723 10722 10722
10635 10638 10640 10643 10644 10647 10650 10652 10654 10657 10659 10661 10662 10661 10663 10665 10667 10670 10671 10674 10678 10678 10682 10686 10687 10689 10690 10692 10692 10692 10695 10697 10697 10698 10698 10698 10700 10700 10701 10702 10701 10704 10706 10706 10706 10707 10712 10715 10711 10709 10711 10712 10713 10714 10714 10716 10716 10717 10717 10718 10719 10716 10715 10719 10722 10722 10720 10720 10722 10720 10720 10721 10721 10721 10720 10720 10720 10719 10720 10719 10718 10718 10718 10718 10717 10717 10717 10716
10627 10629 10632 10635 10636 10640 10643 10645 10649 10651 10652 10653 10653 10652 10656 10659 10660 10661 10663 10667 10673 10674 10676 10680 10682 10684 10685 10686 10685 10687 10691 10690 10690 10693 10690 10690 10692 10692 10694 10695 10694 10699 10702 10698 10698 10701 10706 10710 10707 10704 10705 10705 10707 10709 10708 10709 10711 10711 10712 10712 10712 10711 10711 10714 10717 10716 10714 10715 10716 10714 10716 10717 10714 10715 10714 10714 10714 10713 10713 10713 10712 10712 10712 10711 10711 10711 10710 10710
10619 10621 10625 10627 10629 10634 10635 10639 10644 10642 10643 10645 10644 10645 10649 10652 10652 10653 10654 10659 10668 10672 10670 10673 10677 10679 10680 10681 10681 10682 10683 10683 10685 10686 10682 10682 10685 10683 10686 10688 10688 10693 10695 10691 10692 10696 10701 10706 10703 10697 10698 10699 10701 10703 10702 10702 10703 10705 10708 10707 10704 10705 10707 10707 10709 10710 10710 10711 10710 10708 10712 10713 10709 10708 10709 10708 10708 10708 10707 10707 10706 10706 10705 10705 10705 10704 10704 10704
10611 10614 10618 10619 10623 10626 10629 10635 10635 10632 10636 10636 10635 10639 10643 10644 10643 10644 10646 10649 10662 10670 10666 10667 10671 10675 10676 10675 10675 10672 10673 10680 10681 10677 10674 10675 10675 10675 10678 10682 10683 10686 10688 10685 10685 10691 10697 10699 10696 10692 10692 10694 10695 10698 10696 10693 10695 10701 10705 10702 10697 10699 10702 10702 10703 10703 10705 10707 10704 10702 10705 10708 10705 10702 10702 10702 10702 10702 10701 10700 10700 10699 10699 10699 10698 10698 10698 10697
10604 10607 10609 10612 10616 10619 10623 10627 10625 10626 10629 10626 10628 10634 10634 10635 10634 10637 10637 10637 10656 10669 10664 10662 10665 10670 10671 10668 10666 10663 10668 10678 10673 10666 10668 10668 10667 10668 10672 10676 10678 10678 10680 10679 10680 10689 10692 10690 10689 10687 10686 10688 10689 10691 10689 10685 10688 10696 10699 10694 10692 10693 10695 10696 10697 10697 10699 10701 10701 10699 10697 10700 10702 10698 10695 10696 10697 10695 10694 10694 10693 10693 10692 10692 10692 10691 10691 10691
10596 10598 10601 10604 10608 10612 10615 10617 10619 10621 10619 10618 10623 10625 10625 10627 10626 10629 10626 10626 10652 10668 10663 10658 10658 10661 10664 10661 10659 10658 10663 10669 10664 10660 10661 10659 10659 10663 10665 10669 10672 10672 10672 10674 10677 10683 10685 10683 10683 10681 10680 10683 10683 10682 10681 10680 10683 10690 10690 10687 10687 10687 10687 10689 10690 10691 10692 10694 10697 10696 10690 10692 10696 10693 10688 10690 10691 10688 10687 10687 10687 10686 10686 10685 10685 10685 10684 10684
10588 10590 10594 10596 10599 10604 10607 10611 10612 10610 10609 10612 10615 10616 10617 10617 10617 10619 10613 10620 10650 10664 10659 10656 10653 10653 10654 10654 10653 10651 10654 10657 10656 10656 10653 10651 10654 10657 10659 10662 10665 10668 10668 10669 10672 10677 10679 10678 10674 10673 10676 10677 10676 10674 10674 10675 10678 10682 10681 10680 10680 10680 10681 10682 10683 10686 10686 10690 10693 10689 10683 10683 10689 10688 10684 10683 10684 10682 10681 10681 10680 10679 10679 10678 10678 10678 10677 10677
10580 10583 10586 10587 10592 10597 10600 10603 10603 10600 10602 10605 10605 10606 10607 10606 10609 10607 10603 10621 10648 10657 10655 10651 10647 10646 10644 10644 10645 10645 10646 10647 10648 10649 10647 10648 10649 10650 10655 10657 10658 10663 10663 10663 10666 10669 10671 10670 10667 10668 10669 10669 10668 10668 10669 10670 10671 10673 10673 10673 10673 10674 10674 10675 10678 10678 10680 10685 10686 10680 10675 10676 10682 10687 10682 10675 10674 10675 10675 10673 10673 10672 10672 10672 10670 10670 10670 10670
10572 10575 10577 10580 10585 10588 10591 10595 10595 10593 10594 10595 10596 10596 10597 10600 10599 10595 10606 10630 10642 10645 10649 10645 10641 10641 10637 10636 10637 10636 10638 10638 10639 10640 10641 10643 10643 10645 10651 10651 10651 10655 10657 10658 10659 10659 10660 10661 10662 10662 10661 10662 10662 10662 10662 10663 10664 10665 10665 10666 10667 10668 10668 10670 10671 10671 10673 10678 10677 10671 10668 10670 10678 10684 10679 10670 10665 10667 10668 10666 10666 10666 10665 10664 10663 10663 10663 10663
10563 10566 10567 10571 10576 10579 10586 10589 10586 10584 10585 10587 10587 10588 10591 10591 10587 10596 10618 10630 10628 10634 10643 10639 10636 10634 10629 10628 10629 10628 10629 10629 10631 10633 10635 10637 10638 10642 10644 10644 10645 10646 10649 10652 10650 10650 10652 10654 10656 10656 10655 10655 10654 10654 10655 10656 10656 10657 10659 10660 10660 10660 10662 10663 10664 10664 10665 10668 10669 10665 10663 10667 10674 10675 10672 10667 10660 10658 10660 10659 10659 10658 10657 10656 10655 10655 10655 10655
10554 10555 10557 10563 10568 10573 10578 10578 10574 10573 10576 10577 10577 10581 10581 10575 10583 10605 10617 10616 10616 10626 10633 10630 10626 10623 10620 10621 10623 10622 10620 10622 10626 10628 10630 10631 10632 10637 10638 10637 10639 10638 10640 10644 10643 10643 10646 10647 10649 10648 10648 10646 10645 10647 10649 10649 10650 10651 10653 10654 10653 10653 10656 10656 10655 10656 10658 10660 10662 10660 10658 10664 10669 10665 10661 10661 10658 10653 10652 10652 10651 10650 10649 10648 10647 10646 10647 10647
10543 10545 10548 10555 10560 10564 10567 10567 10565 10564 10566 10567 10568 10570 10564 10563 10586 10606 10604 10603 10610 10615 10620 10620 10617 10615 10615 10616 10618 10617 10615 10617 10621 10621 10622 10625 10626 10631 10631 10630 10632 10631 10632 10636 10637 10637 10638 10641 10643 10640 10640 10640 10639 10641 10643 10642 10643 10646 10646 10646 10647 10647 10647 10647 10647 10649 10651 10652 10654 10654 10655 10659 10661 10655 10650 10652 10654 10651 10647 10645 10644 10643 10641 10640 10639 10638 10639 10639
10533 10536 10541 10545 10549 10553 10557 10559 10558 10555 10557 10560 10558 10554 10550 10563 10589 10596 10592 10597 10601 10602 10609 10610 10606 10607 10609 10611 10614 10613 10610 10612 10614 10613 10615 10618 10620 10623 10624 10624 10626 10625 10624 10627 10630 10630 10630 10635 10637 10632 10632 10634 10633 10634 10636 10636 10637 10639 10639 10640 10642 10638 10634 10637 10641 10643 10644 10645 10648 10649 10649 10651 10650 10647 10644 10644 10645 10643 10640 10640 10638 10637 10635 10633 10632 10632 10632 10633
10522 10526 10530 10533 10538 10544 10549 10551 10550 10548 10549 10550 10544 10539 10547 10566 10580 10581 10582 10588 10590 10592 10597 10598 10598 10600 10602 10606 10608 10605 10603 10605 10606 10606 10608 10611 10612 10616 10619 10618 10617 10617 10617 10617 10620 10623 10623 10627 10630 10626 10626 10628 10626 10627 10628 10628 10632 10633 10633 10635 10633 10626 10625 10631 10635 10636 10636 10638 10642 10643 10642 10641 10640 10641 10641 10637 10634 10632 10632 10633 10631 10629 10627 10626 10626 10626 10627 10627
10513 10517 10519 10523 10531 10536 10540 10541 10540 10538 10539 10537 10530 10532 10547 10561 10566 10570 10574 10577 10580 10583 10584 10586 10590 10592 10595 10598 10599 10598 10597 10598 10599 10599 10600 10602 10606 10610 10612 10610 10608 10610 10611 10607 10610 10617 10617 10620 10623 10619 10619 10621 10618 10619 10622 10622 10626 10627 10626 10626 10621 10617 10622 10625 10626 10629 10629 10629 10634 10636 10635 10634 10633 10635 10634 10629 10626 10625 10625 10624 10622 10619 10617 10617 10619 10619 10619 10619
10506 10509 10509 10515 10522 10525 10529 10530 10527 10527 10528 10525 10521 10527 10540 10550 10556 10561 10564 10566 10570 10572 10572 10576 10581 10584 10588 10590 10592 10593 10590 10590 10592 10591 10592 10595 10600 10605 10605 10602 10601 10603 10602 10598 10603 10610 10608 10610 10615 10613 10612 10614 10611 10613 10617 10618 10618 10618 10616 10615 10612 10613 10617 10617 10617 10621 10621 10620 10625 10628 10628 10627 10626 10627 10626 10622 10620 10619 10618 10615 10611 10609 10609 10610 10611 10611 10611 10610
10497 10498 10500 10505 10508 10512 10517 10517 10515 10516 10515 10512 10514 10522 10533 10541 10546 10549 10552 10556 10559 10561 10565 10569 10571 10575 10579 10581 10584 10586 10583 10582 10585 10584 10586 10590 10593 10598 10598 10594 10593 10597 10595 10591 10593 10599 10598 10599 10607 10608 10605 10604 10604 10607 10611 10610 10607 10606 10608 10609 10608 10609 10610 10609 10610 10612 10612 10613 10615 10616 10619 10621 10620 10621 10619 10615 10613 10612 10609 10604 10600 10600 10602 10602 10602 10602 10601 10600
10486 10487 10493 10497 10495 10498 10504 10504 10502 10500 10500 10502 10509 10518 10525 10530 10534 10537 10540 10546 10549 10552 10557 10560 10560 10563 10569 10572 10574 10577 10576 10575 10578 10578 10580 10585 10588 10591 10591 10586 10587 10590 10587 10581 10582 10588 10589 10589 10596 10600 10597 10595 10599 10602 10601 10600 10598 10599 10602 10604 10603 10602 10601 10602 10604 10603 10602 10603 10605 10606 10612 10617 10617 10614 10611 10607 10605 10603 10597 10592 10590 10592 10593 10593 10593 10592 10591 10591
10476 10477 10485 10490 10487 10486 10488 10489 10488 10487 10489 10496 10504 10511 10514 10518 10524 10528 10531 10534 10538 10542 10546 10549 10551 10553 10559 10563 10565 10568 10567 10567 10570 10571 10574 10581 10583 10582 10582 10579 10580 10581 10577 10573 10574 10577 10579 10579 10583 10590 10592 10590 10592 10593 10590 10590 10593 10593 10595 10598 10598 10595 10593 10592 10593 10593 10591 10592 10596 10598 10604 10611 10610 10606 10604 10600 10597 10592 10586 10582 10582 10583 10584 10583 10581 10581 10582 10581
10464 10469 10477 10481 10480 10479 10475 10473 10478 10481 10482 10489 10497 10501 10504 10509 10515 10518 10521 10523 10525 10530 10534 10538 10542 10544 10548 10553 10556 10557 10556 10557 10562 10564 10568 10575 10575 10574 10574 10573 10572 10572 10569 10567 10568 10568 10568 10569 10572 10578 10583 10582 10580 10582 10581 10582 10586 10587 10589 10593 10590 10586 10582 10579 10580 10584 10584 10586 10588 10587 10592 10602 10601 10596 10596 10593 10587 10582 10576 10573 10574 10574 10573 10572 10570 10571 10572 10570
10454 10462 10468 10470 10472 10472 10465 10460 10467 10473 10476 10483 10489 10490 10494 10501 10506 10508 10512 10514 10514 10519 10525 10529 10532 10535 10538 10542 10543 10545 10546 10547 10552 10557 10562 10566 10567 10568 10567 10565 10564 10564 10561 10561 10563 10561 10558 10559 10560 10564 10570 10571 10570 10573 10575 10576 10579 10582 10583 10581 10576 10574 10572 10569 10572 10576 10577 10581 10580 10575 10581 10591 10591 10587 10586 10582 10577 10573 10568 10566 10565 10563 10562 10561 10561 10562 10561 10558
10446 10452 10456 10459 10462 10462 10456 10452 10457 10464 10470 10476 10479 10480 10485 10493 10497 10500 10504 10504 10505 10510 10514 10518 10522 10524 10527 10530 10532 10534 10535 10537 10543 10549 10553 10556 10560 10561 10558 10555 10555 10555 10555 10555 10555 10552 10549 10549 10549 10549 10555 10562 10564 10567 10569 10570 10571 10571 10570 10567 10565 10566 10563 10562 10564 10564 10567 10576 10573 10567 10572 10578 10578 10578 10575 10570 10566 10563 10559 10559 10557 10553 10551 10552 10552 10552 10549 10547
10436 10440 10444 10448 10450 10449 10447 10447 10451 10455 10460 10465 10468 10471 10476 10482 10486 10491 10494 10494 10496 10498 10501 10507 10512 10515 10516 10518 10521 10523 10525 10530 10534 10537 10542 10546 10550 10551 10547 10546 10546 10546 10547 10548 10546 10543 10542 10542 10539 10539 10545 10551 10553 10556 10560 10561 10559 10558 10559 10559 10558 10557 10555 10555 10553 10551 10560 10568 10563 10560 10564 10562 10563 10567 10563 10558 10556 10552 10550 10550 10548 10545 10544 10544 10543 10541 10539 10537
10425 10427 10433 10437 10439 10439 10440 10442 10444 10446 10451 10456 10459 10464 10468 10472 10478 10483 10484 10485 10487 10489 10492 10497 10501 10504 10506 10509 10511 10513 10517 10520 10521 10524 10531 10536 10538 10539 10538 10537 10537 10538 10539 10539 10537 10534 10533 10533 10533 10535 10537 10537 10539 10544 10548 10549 10549 10548 10550 10550 10548 10548 10547 10544 10541 10543 10551 10551 10551 10557 10554 10546 10550 10552 10547 10547 10545 10541 10541 10540 10536 10536 10536 10534 10532 10530 10528 10527
10413 10416 10423 10427 10428 10430 10434 10437 10438 10441 10446 10448 10450 10456 10460 10463 10468 10471 10473 10475 10478 10481 10483 10485 10490 10495 10498 10500 10501 10502 10505 10506 10507 10513 10521 10525 10527 10528 10528 10528 10528 10528 10529 10529 10527 10524 10523 10525 10529 10530 10528 10526 10528 10533 10535 10537 10538 10538 10539 10539 10540 10538 10536 10532 10532 10536 10536 10533 10542 10551 10540 10532 10538 10534 10530 10535 10534 10530 10530 10528 10525 10525 10525 10523 10522 10520 10518 10515
10404 10408 10415 10418 10417 10420 10428 10433 10433 10434 10436 10436 10439 10446 10450 10452 10455 10459 10463 10466 10469 10472 10473 10475 10482 10486 10488 10489 10488 10489 10493 10494 10498 10505 10510 10512 10514 10515 10516 10517 10518 10519 10519 10519 10517 10515 10513 10517 10522 10520 10517 10518 10521 10522 10524 10526 10526 10527 10527 10528 10529 10527 10524 10523 10523 10524 10521 10521 10533 10536 10523 10522 10526 10518 10515 10522 10519 10515 10515 10514 10514 10513 10511 10510 10510 10508 10506 10504
10396 10401 10406 10408 10409 10414 10421 10425 10424 10423 10424 10424 10427 10433 10438 10441 10445 10450 10454 10456 10460 10463 10463 10466 10474 10476 10476 10475 10475 10477 10483 10485 10489 10494 10496 10497 10501 10503 10505 10507 10508 10509 10509 10509 10508 10506 10504 10508 10512 10509 10507 10509 10510 10511 10514 10514 10514 10516 10516 10516 10518 10517 10515 10512 10513 10512 10508 10510 10519 10516 10508 10513 10516 10506 10502 10504 10502 10499 10500 10500 10500 10499 10497 10496 10494 10492 10491 10488
10387 10393 10397 10398 10402 10408 10411 10413 10414 10415 10417 10416 10416 10420 10426 10430 10435 10440 10444 10447 10450 10452 10454 10459 10465 10464 10462 10462 10463 10469 10475 10475 10477 10481 10483 10484 10488 10491 10493 10496 10497 10498 10498 10498 10499 10497 10495 10498 10500 10499 10496 10497 10500 10502 10502 10502 10503 10502 10503 10507 10510 10507 10503 10502 10503 10500 10493 10496 10503 10498 10494 10503 10505 10494 10487 10486 10486 10485 10484 10484 10484 10484 10482 10481 10478 10476 10474 10471
10376 10381 10385 10388 10391 10397 10400 10403 10404 10406 10407 10407 10409 10414 10417 10419 10424 10429 10431 10434 10436 10439 10445 10451 10454 10451 10450 10452 10457 10463 10465 10463 10464 10469 10470 10471 10475 10478 10480 10484 10486 10487 10487 10488 10488 10487 10486 10487 10489 10488 10485 10485 10490 10491 10489 10490 10488 10485 10493 10504 10501 10494 10492 10491 10489 10486 10481 10484 10487 10482 10483 10490 10488 10479 10475 10474 10473 10471 10469 10469 10469 10467 10467 10465 10464 10461 10457 10454
10365 10368 10372 10376 10380 10384 10389 10392 10393 10393 10395 10400 10404 10407 10409 10411 10414 10415 10417 10420 10424 10429 10434 10438 10438 10437 10440 10446 10451 10453 10452 10451 10454 10457 10457 10459 10463 10466 10468 10471 10473 10474 10476 10477 10476 10476 10476 10476 10478 10477 10473 10473 10478 10479 10478 10477 10471 10472 10489 10498 10488 10480 10480 10478 10475 10476 10474 10472 10470 10469 10473 10475 10469 10467 10467 10464 10461 10458 10455 10455 10454 10452 10451 10449 10447 10444 10440 10439